| time (UTC) | temp F | wind direction | speed MPH | gust MPH | rain 1hr in | rain 24hr in | rain mn in | humidity % | barometer mb |
| 20260507130205 | 52 | 353 | 3.0 | 5.0 | 0.00 | 0.00 | 0.00 | 49 | 1018.0 |
| 20260507125706 | 53 | 353 | 3.0 | 6.0 | 0.00 | 0.00 | 0.00 | 48 | 1017.8 |
| 20260507124704 | 53 | 353 | 4.0 | 6.0 | 0.00 | 0.00 | 0.00 | 48 | 1017.7 |
| 20260507124204 | 53 | 353 | 4.0 | 6.0 | 0.00 | 0.00 | 0.00 | 48 | 1017.7 |
| 20260507123704 | 53 | 353 | 4.0 | 6.0 | 0.00 | 0.00 | 0.00 | 47 | 1017.8 |
| 20260507123204 | 53 | 353 | 4.0 | 6.0 | 0.00 | 0.00 | 0.00 | 47 | 1017.7 |
| 20260507122204 | 53 | 353 | 5.0 | 8.0 | 0.00 | 0.00 | 0.00 | 47 | 1017.7 |
| 20260507121705 | 53 | 353 | 5.0 | 8.0 | 0.00 | 0.00 | 0.00 | 47 | 1017.8 |
| 20260507120205 | 53 | 3 | 4.0 | 5.0 | 0.00 | 0.00 | 0.00 | 46 | 1017.8 |
| 20260507115704 | 54 | 3 | 4.0 | 5.0 | 0.00 | 0.00 | 0.00 | 46 | 1018.0 |
| 20260507115205 | 55 | 3 | 3.0 | 4.0 | 0.00 | 0.00 | 0.00 | 46 | 1018.0 |
| 20260507114204 | 55 | 3 | 4.0 | 7.0 | 0.00 | 0.00 | 0.00 | 45 | 1017.8 |
| 20260507113705 | 55 | 3 | 5.0 | 7.0 | 0.00 | 0.00 | 0.00 | 45 | 1017.8 |
| 20260507113204 | 55 | 7 | 5.0 | 7.0 | 0.00 | 0.00 | 0.00 | 45 | 1017.7 |
| 20260507112705 | 55 | 9 | 5.0 | 6.0 | 0.00 | 0.00 | 0.00 | 45 | 1017.8 |
| 20260507112204 | 56 | 20 | 4.0 | 6.0 | 0.00 | 0.00 | 0.00 | 44 | 1017.8 |
| 20260507111704 | 57 | 23 | 4.0 | 5.0 | 0.00 | 0.00 | 0.00 | 43 | 1017.8 |
| 20260507111204 | 58 | 28 | 4.0 | 5.0 | 0.00 | 0.00 | 0.00 | 42 | 1018.0 |
| 20260507110705 | 58 | 32 | 3.0 | 5.0 | 0.00 | 0.00 | 0.00 | 42 | 1018.0 |
| 20260507110204 | 59 | 32 | 3.0 | 6.0 | 0.00 | 0.00 | 0.00 | 41 | 1017.8 |
| 20260507105704 | 60 | 32 | 3.0 | 6.0 | 0.00 | 0.00 | 0.00 | 40 | 1017.7 |
| 20260507105204 | 60 | 32 | 4.0 | 6.0 | 0.00 | 0.00 | 0.00 | 40 | 1017.8 |
| 20260507104704 | 59 | 32 | 4.0 | 5.0 | 0.00 | 0.00 | 0.00 | 40 | 1017.7 |
| 20260507104204 | 59 | 33 | 4.0 | 5.0 | 0.00 | 0.00 | 0.00 | 41 | 1017.8 |
| 20260507103704 | 60 | 33 | 3.0 | 5.0 | 0.00 | 0.00 | 0.00 | 40 | 1017.7 |
| 20260507103204 | 60 | 33 | 3.0 | 5.0 | 0.00 | 0.00 | 0.00 | 39 | 1017.8 |
| 20260507102704 | 61 | 33 | 3.0 | 5.0 | 0.00 | 0.00 | 0.00 | 39 | 1017.8 |
| 20260507102204 | 61 | 33 | 3.0 | 5.0 | 0.00 | 0.00 | 0.00 | 39 | 1017.8 |
| 20260507101205 | 60 | 33 | 4.0 | 5.0 | 0.00 | 0.00 | 0.00 | 39 | 1017.8 |
| 20260507100704 | 60 | 33 | 4.0 | 5.0 | 0.00 | 0.00 | 0.00 | 39 | 1017.8 |
| 20260507100204 | 60 | 34 | 4.0 | 5.0 | 0.00 | 0.00 | 0.00 | 40 | 1017.7 |
| 20260507095704 | 60 | 34 | 3.0 | 5.0 | 0.00 | 0.00 | 0.00 | 40 | 1017.8 |
| 20260507095204 | 60 | 34 | 3.0 | 5.0 | 0.00 | 0.00 | 0.00 | 41 | 1017.8 |
| 20260507094704 | 60 | 34 | 3.0 | 5.0 | 0.00 | 0.00 | 0.00 | 42 | 1017.8 |
| 20260507094204 | 60 | 34 | 3.0 | 4.0 | 0.00 | 0.00 | 0.00 | 42 | 1018.0 |
| 20260507093704 | 61 | 34 | 3.0 | 4.0 | 0.00 | 0.00 | 0.00 | 41 | 1017.8 |
| 20260507093204 | 61 | 34 | 3.0 | 5.0 | 0.00 | 0.00 | 0.00 | 40 | 1018.0 |
| 20260507092704 | 62 | 34 | 3.0 | 5.0 | 0.00 | 0.00 | 0.00 | 40 | 1018.0 |
| 20260507092204 | 62 | 34 | 3.0 | 5.0 | 0.00 | 0.00 | 0.00 | 40 | 1018.0 |
| 20260507091704 | 63 | 34 | 3.0 | 5.0 | 0.00 | 0.00 | 0.00 | 39 | 1018.1 |
| 20260507090704 | 63 | 34 | 4.0 | 7.0 | 0.00 | 0.00 | 0.00 | 39 | 1018.1 |
| 20260507090204 | 63 | 33 | 4.0 | 7.0 | 0.00 | 0.00 | 0.00 | 39 | 1018.2 |
| 20260507085705 | 63 | 32 | 4.0 | 6.0 | 0.00 | 0.00 | 0.00 | 40 | 1018.2 |
| 20260507084704 | 63 | 28 | 4.0 | 6.0 | 0.00 | 0.00 | 0.00 | 41 | 1018.2 |
| 20260507084204 | 62 | 17 | 3.0 | 5.0 | 0.00 | 0.00 | 0.00 | 42 | 1018.2 |
| 20260507083704 | 62 | 14 | 3.0 | 5.0 | 0.00 | 0.00 | 0.00 | 42 | 1018.3 |
| 20260507083204 | 62 | 13 | 3.0 | 5.0 | 0.00 | 0.00 | 0.00 | 42 | 1018.3 |
| 20260507082704 | 62 | 12 | 3.0 | 4.0 | 0.00 | 0.00 | 0.00 | 43 | 1018.3 |
| 20260507082204 | 62 | 12 | 3.0 | 4.0 | 0.00 | 0.00 | 0.00 | 44 | 1018.3 |
| 20260507081204 | 61 | 11 | 3.0 | 4.0 | 0.00 | 0.00 | 0.00 | 45 | 1018.2 |
| 20260507080704 | 61 | 11 | 3.0 | 4.0 | 0.00 | 0.00 | 0.00 | 46 | 1018.2 |
| 20260507075704 | 60 | 11 | 3.0 | 4.0 | 0.00 | 0.00 | 0.00 | 49 | 1018.2 |
| 20260507075204 | 58 | 11 | 2.0 | 4.0 | 0.00 | 0.00 | 0.00 | 51 | 1018.2 |
| 20260507074704 | 58 | 11 | 3.0 | 4.0 | 0.00 | 0.00 | 0.00 | 50 | 1018.2 |
| 20260507073705 | 61 | 11 | 2.0 | 4.0 | 0.00 | 0.00 | 0.00 | 47 | 1018.2 |
| 20260507073204 | 61 | 11 | 3.0 | 4.0 | 0.00 | 0.00 | 0.00 | 47 | 1018.2 |
| 20260507072704 | 60 | 10 | 3.0 | 4.0 | 0.00 | 0.00 | 0.00 | 48 | 1018.2 |
| 20260507072204 | 60 | 10 | 3.0 | 4.0 | 0.00 | 0.00 | 0.00 | 49 | 1018.2 |
| 20260507070704 | 59 | 9 | 3.0 | 4.0 | 0.00 | 0.00 | 0.00 | 50 | 1018.2 |
| 20260507070204 | 59 | 9 | 3.0 | 5.0 | 0.00 | 0.00 | 0.00 | 50 | 1018.1 |
| 20260507065704 | 59 | 9 | 4.0 | 5.0 | 0.00 | 0.00 | 0.00 | 51 | 1018.2 |
| 20260507065204 | 58 | 9 | 4.0 | 5.0 | 0.00 | 0.00 | 0.00 | 51 | 1018.2 |
| 20260507064704 | 58 | 9 | 3.0 | 5.0 | 0.00 | 0.00 | 0.00 | 51 | 1018.2 |
| 20260507063704 | 59 | 9 | 4.0 | 7.0 | 0.00 | 0.00 | 0.00 | 49 | 1018.2 |
| 20260507063205 | 60 | 9 | 4.0 | 7.0 | 0.00 | 0.00 | 0.00 | 48 | 1018.2 |
| 20260507062704 | 61 | 17 | 3.0 | 5.0 | 0.00 | 0.00 | 0.00 | 47 | 1018.2 |
| 20260507061704 | 63 | 39 | 2.0 | 5.0 | 0.00 | 0.00 | 0.00 | 47 | 1018.1 |
| 20260507061205 | 63 | 39 | 2.0 | 5.0 | 0.00 | 0.00 | 0.00 | 47 | 1018.1 |
| 20260507060204 | 64 | 39 | 3.0 | 4.0 | 0.00 | 0.00 | 0.00 | 46 | 1018.1 |
| 20260507055704 | 64 | 39 | 2.0 | 4.0 | 0.00 | 0.00 | 0.00 | 46 | 1018.1 |
| 20260507055204 | 63 | 39 | 2.0 | 4.0 | 0.00 | 0.00 | 0.00 | 46 | 1018.1 |
| 20260507054704 | 64 | 39 | 2.0 | 3.0 | 0.00 | 0.00 | 0.00 | 46 | 1018.1 |
| 20260507054204 | 64 | 39 | 2.0 | 3.0 | 0.00 | 0.00 | 0.00 | 46 | 1018.1 |
| 20260507053704 | 64 | 39 | 1.0 | 3.0 | 0.00 | 0.00 | 0.00 | 45 | 1018.1 |
| 20260507053205 | 64 | 39 | 1.0 | 3.0 | 0.00 | 0.00 | 0.00 | 44 | 1018.1 |
| 20260507052204 | 65 | 39 | 1.0 | 4.0 | 0.00 | 0.00 | 0.00 | 44 | 1018.1 |
| 20260507051204 | 66 | 39 | 2.0 | 4.0 | 0.00 | 0.00 | 0.00 | 43 | 1018.1 |
| 20260507050704 | 66 | 39 | 2.0 | 4.0 | 0.00 | 0.00 | 0.00 | 43 | 1018.1 |
| 20260507050204 | 67 | 40 | 2.0 | 4.0 | 0.00 | 0.00 | 0.00 | 42 | 1018.1 |
| 20260507045705 | 67 | 40 | 2.0 | 5.0 | 0.00 | 0.00 | 0.00 | 41 | 1018.0 |
| 20260507044704 | 67 | 39 | 3.0 | 5.0 | 0.00 | 0.00 | 0.00 | 41 | 1017.8 |
| 20260507044204 | 67 | 39 | 3.0 | 6.0 | 0.00 | 0.00 | 0.00 | 39 | 1017.8 |
| 20260507043704 | 67 | 38 | 3.0 | 7.0 | 0.00 | 0.00 | 0.00 | 39 | 1017.8 |
| 20260507043204 | 67 | 38 | 4.0 | 9.0 | 0.00 | 0.00 | 0.00 | 38 | 1017.7 |
| 20260507042204 | 68 | 32 | 4.0 | 7.0 | 0.00 | 0.00 | 0.00 | 38 | 1017.6 |
| 20260507041704 | 67 | 37 | 3.0 | 6.0 | 0.00 | 0.00 | 0.00 | 38 | 1017.6 |
| 20260507041204 | 67 | 42 | 3.0 | 5.0 | 0.00 | 0.00 | 0.00 | 39 | 1017.6 |
| 20260507040705 | 67 | 70 | 3.0 | 5.0 | 0.00 | 0.00 | 0.00 | 40 | 1017.5 |
| 20260507035704 | 67 | 71 | 3.0 | 5.0 | 0.00 | 0.00 | 0.00 | 40 | 1017.4 |
| 20260507035204 | 67 | 76 | 3.0 | 5.0 | 0.00 | 0.00 | 0.00 | 40 | 1017.4 |
| 20260507034704 | 66 | 77 | 2.0 | 7.0 | 0.00 | 0.00 | 0.00 | 39 | 1017.3 |
| 20260507033704 | 65 | 82 | 3.0 | 7.0 | 0.00 | 0.00 | 0.00 | 40 | 1017.1 |
| 20260507033205 | 65 | 328 | 5.0 | 8.0 | 0.00 | 0.00 | 0.00 | 42 | 1017.2 |
| 20260507032704 | 65 | 320 | 5.0 | 8.0 | 0.00 | 0.00 | 0.00 | 41 | 1016.7 |
| 20260507032204 | 66 | 320 | 5.0 | 8.0 | 0.00 | 0.00 | 0.00 | 40 | 1016.6 |
| 20260507031705 | 67 | 320 | 5.0 | 8.0 | 0.00 | 0.00 | 0.00 | 39 | 1016.6 |
| 20260507031205 | 68 | 320 | 5.0 | 8.0 | 0.00 | 0.00 | 0.00 | 38 | 1016.5 |
| 20260507030705 | 68 | 321 | 5.0 | 8.0 | 0.00 | 0.00 | 0.00 | 38 | 1016.5 |
| 20260507030204 | 69 | 320 | 5.0 | 12.0 | 0.00 | 0.00 | 0.00 | 37 | 1016.5 |
| 20260507025704 | 69 | 319 | 6.0 | 12.0 | 0.00 | 0.00 | 0.00 | 36 | 1016.5 |
| 20260507025204 | 71 | 311 | 7.0 | 12.0 | 0.00 | 0.00 | 0.00 | 34 | 1016.4 |
| 20260507024704 | 72 | 325 | 6.0 | 9.0 | 0.00 | 0.00 | 0.00 | 31 | 1016.4 |
| 20260507024204 | 73 | 309 | 4.0 | 4.0 | 0.00 | 0.00 | 0.00 | 29 | 1016.4 |
| 20260507023205 | 75 | 228 | 0.0 | 4.0 | 0.00 | 0.00 | 0.00 | 22 | 1016.3 |
| 20260507022706 | 75 | 228 | 2.0 | 4.0 | 0.00 | 0.00 | 0.00 | 22 | 1016.3 |
| 20260507021704 | 76 | 358 | 2.0 | 4.0 | 0.00 | 0.00 | 0.00 | 21 | 1016.2 |
| 20260507020204 | 76 | 358 | 2.0 | 4.0 | 0.00 | 0.00 | 0.00 | 21 | 1016.2 |
| 20260507015704 | 76 | 358 | 2.0 | 9.0 | 0.00 | 0.00 | 0.00 | 20 | 1016.2 |
| 20260507015205 | 76 | 358 | 2.0 | 10.0 | 0.00 | 0.00 | 0.00 | 21 | 1016.2 |
| 20260507014204 | 77 | 230 | 5.0 | 10.0 | 0.00 | 0.00 | 0.00 | 19 | 1016.1 |
| 20260507013704 | 77 | 240 | 4.0 | 10.0 | 0.00 | 0.00 | 0.00 | 19 | 1016.1 |
| 20260507013204 | 78 | 222 | 4.0 | 12.0 | 0.00 | 0.00 | 0.00 | 19 | 1016.1 |
| 20260507012704 | 78 | 134 | 4.0 | 12.0 | 0.00 | 0.00 | 0.00 | 18 | 1016.0 |
| 20260507010704 | 79 | 161 | 3.0 | 8.0 | 0.00 | 0.00 | 0.00 | 18 | 1016.0 |
| 20260507010205 | 79 | 148 | 3.0 | 10.0 | 0.00 | 0.00 | 0.00 | 18 | 1016.0 |
| 20260507005704 | 79 | 144 | 3.0 | 10.0 | 0.00 | 0.00 | 0.00 | 18 | 1016.0 |
| 20260507005204 | 79 | 183 | 4.0 | 8.0 | 0.00 | 0.00 | 0.00 | 18 | 1016.0 |
| 20260507004704 | 79 | 188 | 3.0 | 8.0 | 0.00 | 0.00 | 0.00 | 19 | 1016.0 |
| 20260507004204 | 79 | 157 | 3.0 | 10.0 | 0.00 | 0.00 | 0.00 | 19 | 1016.0 |
| 20260507003704 | 79 | 200 | 4.0 | 10.0 | 0.00 | 0.00 | 0.00 | 19 | 1016.1 |
| 20260507003204 | 79 | 153 | 4.0 | 10.0 | 0.00 | 0.00 | 0.00 | 19 | 1016.1 |
| 20260507002704 | 79 | 167 | 3.0 | 10.0 | 0.00 | 0.00 | 0.00 | 19 | 1016.1 |
| 20260507002204 | 79 | 230 | 4.0 | 10.0 | 0.00 | 0.00 | 0.00 | 19 | 1016.1 |
| 20260507001704 | 79 | 136 | 4.0 | 10.0 | 0.00 | 0.00 | 0.00 | 19 | 1016.1 |
| 20260507001204 | 79 | 111 | 3.0 | 8.0 | 0.00 | 0.00 | 0.00 | 19 | 1016.1 |
| 20260507000704 | 79 | 158 | 3.0 | 11.0 | 0.00 | 0.00 | 0.00 | 20 | 1016.1 |
| 20260507000205 | 79 | 134 | 3.0 | 11.0 | 0.00 | 0.00 | 0.00 | 20 | 1016.0 |
| 20260506235705 | 79 | 226 | 4.0 | 10.0 | 0.00 | 0.00 | 0.00 | 20 | 1016.1 |
| 20260506235204 | 79 | 184 | 4.0 | 11.0 | 0.00 | 0.00 | 0.00 | 20 | 1016.1 |
| 20260506234704 | 79 | 148 | 4.0 | 11.0 | 0.00 | 0.00 | 0.00 | 20 | 1016.1 |
| 20260506234204 | 79 | 192 | 4.0 | 11.0 | 0.00 | 0.00 | 0.00 | 20 | 1016.1 |
| 20260506233205 | 78 | 139 | 6.0 | 13.0 | 0.00 | 0.00 | 0.00 | 21 | 1016.1 |
| 20260506232705 | 78 | 144 | 7.0 | 13.0 | 0.00 | 0.00 | 0.00 | 21 | 1016.3 |
| 20260506232205 | 78 | 150 | 6.0 | 13.0 | 0.00 | 0.00 | 0.00 | 20 | 1016.3 |
| 20260506231704 | 78 | 153 | 6.0 | 15.0 | 0.00 | 0.00 | 0.00 | 21 | 1016.2 |
| 20260506230704 | 78 | 184 | 6.0 | 15.0 | 0.00 | 0.00 | 0.00 | 22 | 1016.2 |
| 20260506230204 | 78 | 145 | 4.0 | 11.0 | 0.00 | 0.00 | 0.00 | 21 | 1016.3 |
| 20260506225205 | 78 | 230 | 6.0 | 15.0 | 0.00 | 0.00 | 0.00 | 23 | 1016.4 |
| 20260506224204 | 78 | 154 | 5.0 | 17.0 | 0.00 | 0.00 | 0.00 | 22 | 1016.5 |
| 20260506223704 | 78 | 159 | 6.0 | 17.0 | 0.00 | 0.00 | 0.00 | 23 | 1016.5 |
| 20260506223204 | 78 | 219 | 6.0 | 17.0 | 0.00 | 0.00 | 0.00 | 24 | 1016.6 |
| 20260506222204 | 77 | 223 | 5.0 | 13.0 | 0.00 | 0.00 | 0.00 | 24 | 1016.6 |
| 20260506221705 | 77 | 179 | 5.0 | 15.0 | 0.00 | 0.00 | 0.00 | 26 | 1016.8 |
| 20260506221204 | 77 | 98 | 6.0 | 15.0 | 0.00 | 0.00 | 0.00 | 25 | 1016.8 |
| 20260506220704 | 77 | 163 | 6.0 | 15.0 | 0.00 | 0.00 | 0.00 | 26 | 1017.0 |
| 20260506220204 | 77 | 190 | 3.0 | 13.0 | 0.00 | 0.00 | 0.00 | 26 | 1016.8 |
| 20260506215704 | 76 | 187 | 4.0 | 15.0 | 0.00 | 0.00 | 0.00 | 28 | 1017.0 |
| 20260506215205 | 76 | 222 | 7.0 | 18.0 | 0.00 | 0.00 | 0.00 | 28 | 1017.0 |
| 20260506214204 | 76 | 225 | 6.0 | 12.0 | 0.00 | 0.00 | 0.00 | 27 | 1017.1 |
| 20260506213704 | 77 | 222 | 5.0 | 13.0 | 0.00 | 0.00 | 0.00 | 26 | 1017.2 |
| 20260506211704 | 76 | 231 | 6.0 | 12.0 | 0.00 | 0.00 | 0.00 | 28 | 1017.4 |
| 20260506211204 | 76 | 247 | 5.0 | 14.0 | 0.00 | 0.00 | 0.00 | 27 | 1017.4 |
| 20260506210704 | 76 | 115 | 5.0 | 14.0 | 0.00 | 0.00 | 0.00 | 27 | 1017.4 |
| 20260506210204 | 76 | 235 | 5.0 | 14.0 | 0.00 | 0.00 | 0.00 | 28 | 1017.4 |
| 20260506205704 | 76 | 228 | 4.0 | 9.0 | 0.00 | 0.00 | 0.00 | 26 | 1017.5 |
| 20260506204704 | 76 | 179 | 5.0 | 15.0 | 0.00 | 0.00 | 0.00 | 27 | 1017.5 |
| 20260506204205 | 75 | 144 | 5.0 | 15.0 | 0.00 | 0.00 | 0.00 | 27 | 1017.6 |
| 20260506203204 | 76 | 160 | 6.0 | 16.0 | 0.00 | 0.00 | 0.00 | 26 | 1017.6 |
| 20260506202704 | 76 | 150 | 4.0 | 16.0 | 0.00 | 0.00 | 0.00 | 27 | 1017.6 |
| 20260506202204 | 76 | 71 | 3.0 | 8.0 | 0.00 | 0.00 | 0.00 | 27 | 1017.6 |
| 20260506201704 | 75 | 217 | 3.0 | 8.0 | 0.00 | 0.00 | 0.00 | 28 | 1017.6 |
| 20260506201204 | 75 | 223 | 3.0 | 9.0 | 0.00 | 0.00 | 0.00 | 27 | 1017.7 |
| 20260506200704 | 75 | 223 | 4.0 | 9.0 | 0.00 | 0.00 | 0.00 | 27 | 1017.8 |
| 20260506200204 | 75 | 154 | 3.0 | 9.0 | 0.00 | 0.00 | 0.00 | 28 | 1017.8 |
| 20260506195704 | 74 | 172 | 4.0 | 9.0 | 0.00 | 0.00 | 0.00 | 28 | 1017.8 |
| 20260506195204 | 74 | 169 | 4.0 | 10.0 | 0.00 | 0.00 | 0.00 | 28 | 1018.0 |
| 20260506194704 | 74 | 198 | 4.0 | 11.0 | 0.00 | 0.00 | 0.00 | 29 | 1018.0 |
| 20260506194204 | 73 | 163 | 5.0 | 11.0 | 0.00 | 0.00 | 0.00 | 29 | 1018.0 |
| 20260506193704 | 73 | 148 | 6.0 | 11.0 | 0.00 | 0.00 | 0.00 | 28 | 1018.1 |
| 20260506192704 | 73 | 115 | 4.0 | 8.0 | 0.00 | 0.00 | 0.00 | 30 | 1018.1 |
| 20260506192204 | 72 | 234 | 3.0 | 11.0 | 0.00 | 0.00 | 0.00 | 29 | 1018.1 |
| 20260506191704 | 72 | 236 | 4.0 | 11.0 | 0.00 | 0.00 | 0.00 | 31 | 1018.2 |
| 20260506191204 | 72 | 153 | 6.0 | 11.0 | 0.00 | 0.00 | 0.00 | 30 | 1018.3 |
| 20260506190204 | 72 | 153 | 4.0 | 13.0 | 0.00 | 0.00 | 0.00 | 30 | 1018.3 |
| 20260506185704 | 71 | 101 | 6.0 | 13.0 | 0.00 | 0.00 | 0.00 | 31 | 1018.3 |
| 20260506185204 | 72 | 112 | 5.0 | 12.0 | 0.00 | 0.00 | 0.00 | 30 | 1018.4 |
| 20260506184704 | 71 | 146 | 5.0 | 12.0 | 0.00 | 0.00 | 0.00 | 31 | 1018.4 |
| 20260506183204 | 69 | 190 | 6.0 | 13.0 | 0.00 | 0.00 | 0.00 | 32 | 1018.4 |
| 20260506182704 | 69 | 121 | 6.0 | 13.0 | 0.00 | 0.00 | 0.00 | 32 | 1018.5 |
| 20260506182204 | 69 | 90 | 5.0 | 13.0 | 0.00 | 0.00 | 0.00 | 33 | 1018.5 |
| 20260506181704 | 69 | 86 | 6.0 | 13.0 | 0.00 | 0.00 | 0.00 | 33 | 1018.6 |
| 20260506181204 | 69 | 112 | 5.0 | 13.0 | 0.00 | 0.00 | 0.00 | 33 | 1018.5 |
| 20260506180705 | 68 | 358 | 6.0 | 13.0 | 0.00 | 0.00 | 0.00 | 34 | 1018.6 |
| 20260506180204 | 68 | 134 | 6.0 | 13.0 | 0.00 | 0.00 | 0.00 | 35 | 1018.6 |
| 20260506174705 | 67 | 119 | 7.0 | 15.0 | 0.00 | 0.00 | 0.00 | 36 | 1018.6 |
| 20260506174205 | 67 | 124 | 8.0 | 12.0 | 0.00 | 0.00 | 0.00 | 35 | 1018.5 |
| 20260506173704 | 67 | 358 | 7.0 | 12.0 | 0.00 | 0.00 | 0.00 | 35 | 1018.5 |
| 20260506173204 | 67 | 131 | 6.0 | 12.0 | 0.00 | 0.00 | 0.00 | 37 | 1018.5 |
| 20260506172704 | 66 | 103 | 6.0 | 12.0 | 0.00 | 0.00 | 0.00 | 36 | 1018.5 |
| 20260506171704 | 65 | 358 | 7.0 | 12.0 | 0.00 | 0.00 | 0.00 | 40 | 1018.5 |
| 20260506171204 | 65 | 358 | 7.0 | 12.0 | 0.00 | 0.00 | 0.00 | 38 | 1018.5 |
| 20260506170704 | 65 | 358 | 6.0 | 12.0 | 0.00 | 0.00 | 0.00 | 41 | 1018.4 |
| 20260506170205 | 65 | 358 | 6.0 | 13.0 | 0.00 | 0.00 | 0.00 | 40 | 1018.4 |
| 20260506165704 | 64 | 358 | 5.0 | 13.0 | 0.00 | 0.00 | 0.00 | 41 | 1018.3 |
| 20260506165204 | 64 | 82 | 6.0 | 13.0 | 0.00 | 0.00 | 0.00 | 41 | 1018.4 |
| 20260506164704 | 64 | 88 | 7.0 | 14.0 | 0.00 | 0.00 | 0.00 | 42 | 1018.3 |
| 20260506164204 | 64 | 113 | 7.0 | 14.0 | 0.00 | 0.00 | 0.00 | 42 | 1018.4 |
| 20260506163706 | 63 | 86 | 7.0 | 14.0 | 0.00 | 0.00 | 0.00 | 43 | 1018.3 |
| 20260506163205 | 63 | 120 | 6.0 | 11.0 | 0.00 | 0.00 | 0.00 | 43 | 1018.4 |
| 20260506162704 | 62 | 86 | 5.0 | 13.0 | 0.00 | 0.00 | 0.00 | 44 | 1018.3 |
| 20260506161703 | 62 | 80 | 7.0 | 14.0 | 0.00 | 0.00 | 0.00 | 46 | 1018.3 |
| 20260506161205 | 61 | 101 | 7.0 | 14.0 | 0.00 | 0.00 | 0.00 | 46 | 1018.2 |
| 20260506160704 | 60 | 72 | 7.0 | 14.0 | 0.00 | 0.00 | 0.00 | 48 | 1018.3 |
| 20260506160204 | 60 | 81 | 7.0 | 12.0 | 0.00 | 0.00 | 0.00 | 49 | 1018.3 |
| 20260506155704 | 60 | 84 | 6.0 | 12.0 | 0.00 | 0.00 | 0.00 | 50 | 1018.3 |
| 20260506154704 | 59 | 79 | 6.0 | 11.0 | 0.00 | 0.00 | 0.00 | 50 | 1018.3 |
| 20260506154204 | 59 | 82 | 5.0 | 11.0 | 0.00 | 0.00 | 0.00 | 51 | 1018.3 |
| 20260506153705 | 58 | 81 | 5.0 | 11.0 | 0.00 | 0.00 | 0.00 | 52 | 1018.3 |
| 20260506153204 | 58 | 80 | 5.0 | 11.0 | 0.00 | 0.00 | 0.00 | 53 | 1018.3 |
| 20260506152704 | 58 | 73 | 4.0 | 10.0 | 0.00 | 0.00 | 0.00 | 54 | 1018.3 |
| 20260506152206 | 57 | 80 | 4.0 | 13.0 | 0.00 | 0.00 | 0.00 | 55 | 1018.2 |
| 20260506151704 | 57 | 53 | 5.0 | 13.0 | 0.00 | 0.00 | 0.00 | 55 | 1018.1 |
| 20260506151205 | 56 | 72 | 6.0 | 12.0 | 0.00 | 0.00 | 0.00 | 56 | 1018.2 |
| 20260506150704 | 56 | 92 | 5.0 | 11.0 | 0.00 | 0.00 | 0.00 | 56 | 1018.3 |
| 20260506150204 | 56 | 109 | 4.0 | 12.0 | 0.00 | 0.00 | 0.00 | 57 | 1018.2 |
| 20260506145704 | 55 | 76 | 5.0 | 12.0 | 0.00 | 0.00 | 0.00 | 58 | 1018.2 |
| 20260506145205 | 55 | 94 | 5.0 | 9.0 | 0.00 | 0.00 | 0.00 | 58 | 1018.2 |
| 20260506144205 | 54 | 86 | 3.0 | 8.0 | 0.00 | 0.00 | 0.00 | 60 | 1018.1 |
| 20260506143705 | 54 | 80 | 3.0 | 7.0 | 0.00 | 0.00 | 0.00 | 61 | 1018.1 |
| 20260506143204 | 53 | 83 | 3.0 | 7.0 | 0.00 | 0.00 | 0.00 | 62 | 1018.0 |
| 20260506142704 | 53 | 85 | 3.0 | 5.0 | 0.00 | 0.00 | 0.00 | 63 | 1017.8 |
| 20260506142204 | 52 | 8 | 3.0 | 5.0 | 0.00 | 0.00 | 0.00 | 64 | 1017.8 |
| 20260506141704 | 52 | 3 | 3.0 | 5.0 | 0.00 | 0.00 | 0.00 | 65 | 1017.7 |
| 20260506141204 | 51 | 358 | 2.0 | 5.0 | 0.00 | 0.00 | 0.00 | 66 | 1017.6 |
| 20260506140704 | 51 | 334 | 2.0 | 5.0 | 0.00 | 0.00 | 0.00 | 67 | 1017.6 |
| 20260506140204 | 50 | 334 | 3.0 | 5.0 | 0.00 | 0.00 | 0.00 | 67 | 1017.5 |
| 20260506135704 | 49 | 330 | 3.0 | 5.0 | 0.00 | 0.00 | 0.00 | 69 | 1017.5 |
| 20260506135204 | 49 | 330 | 3.0 | 5.0 | 0.00 | 0.00 | 0.00 | 70 | 1017.4 |
| 20260506134705 | 48 | 330 | 3.0 | 4.0 | 0.00 | 0.00 | 0.00 | 71 | 1017.4 |
| 20260506134204 | 47 | 330 | 2.0 | 4.0 | 0.00 | 0.00 | 0.00 | 73 | 1017.4 |
| 20260506133204 | 45 | 330 | 3.0 | 4.0 | 0.00 | 0.00 | 0.00 | 74 | 1017.4 |
| 20260506132704 | 45 | 330 | 3.0 | 4.0 | 0.00 | 0.00 | 0.00 | 74 | 1017.4 |
| 20260506132205 | 44 | 330 | 2.0 | 4.0 | 0.00 | 0.00 | 0.00 | 74 | 1017.3 |
| 20260506131204 | 43 | 330 | 2.0 | 5.0 | 0.00 | 0.00 | 0.00 | 76 | 1017.3 |
| 20260506130704 | 43 | 330 | 3.0 | 5.0 | 0.00 | 0.00 | 0.00 | 76 | 1017.2 |